Easton, MD

3:36 AM EDT on July 26, 2017 (GMT -0400)
Easton / Newnam

Weather History for KESN - January, 2014

Change the Weather History Date:

Thursday, January 23, 2014

  Actual Average Record
Temperature  
Mean Temperature 17 °F -  
Max Temperature 26 °F 46 °F 69 °F (1974)
Min Temperature 8 °F 29 °F 8 °F (2014)
Degree Days  
Heating Degree Days 48    
Moisture  
Dew Point 5 °F    
Average Humidity 58    
Maximum Humidity 79    
Minimum Humidity 46    
Precipitation  
Precipitation 0.00 in - - ()
Sea Level Pressure  
Sea Level Pressure 30.26 in    
Wind  
Wind Speed 6 mph (NW)    
Max Wind Speed 18 mph    
Max Gust Speed 29 mph    
Visibility 10 miles    
Events      
Averages and records for this station are not official NWS values.
T = Trace of Precipitation, MM = Missing Value Source: NWS Daily Summary

Daily Weather History Graph

Daily Weather History Graph

Search for Another Location

Airport or City:

Trip Planner

Search our weather history database for the weather conditions in past years. The results will help you decide how hot, cold, wet, or windy it might be!

Date:

Astronomy

Jan. 23, 2014 Rise Set
Actual Time 7:17 AM EST 5:15 PM EST
Civil Twilight 6:48 AM EST 5:44 PM EST
Nautical Twilight 6:16 AM EST 6:16 PM EST
Astronomical Twilight 5:44 AM EST 6:48 PM EST
Moon No Moon Rise 10:55 AM EST (1/23)
Length of Visible Light 10h 55m
Length of Day
9h 58m
Waning Gibbous, 55% of the Moon is Illuminated
Jan 23
Waning Gibbous
Jan 24
Last Quarter
Jan 30
New
Feb 6
First Quarter
Feb 14
Full

Hourly Weather History & Observations

Time (EST) Temp. Windchill Dew Point Humidity Pressure Visibility Wind Dir Wind Speed Gust Speed Precip Events Conditions
12:11 AM 18.3 °F 7.3 °F 3.9 °F 53% 30.13 in 10.0 mi NW 9.2 mph - N/A   Clear
12:31 AM 17.6 °F 7.3 °F 3.0 °F 53% 30.13 in 10.0 mi NNW 8.1 mph - N/A   Clear
12:51 AM 17.4 °F 9.1 °F 2.3 °F 52% 30.13 in 10.0 mi NNW 5.8 mph - N/A   Clear
1:11 AM 16.2 °F 9.0 °F 2.1 °F 54% 30.13 in 10.0 mi NW 4.6 mph - N/A   Clear
1:31 AM 16.7 °F 9.6 °F 1.9 °F 52% 30.14 in 10.0 mi NW 4.6 mph - N/A   Clear
1:51 AM 14.9 °F 7.5 °F 3.0 °F 59% 30.15 in 10.0 mi North 4.6 mph - N/A   Clear
2:11 AM 14.5 °F - 3.0 °F 60% 30.16 in 10.0 mi Calm Calm - N/A   Clear
2:31 AM 14.4 °F 8.6 °F 3.2 °F 61% 30.16 in 10.0 mi NNW 3.5 mph - N/A   Clear
2:51 AM 13.8 °F - 2.8 °F 62% 30.17 in 10.0 mi Calm Calm - N/A   Clear
3:11 AM 14.4 °F - 3.0 °F 61% 30.17 in 10.0 mi Calm Calm - N/A   Clear
3:31 AM 14.5 °F - 3.0 °F 60% 30.17 in 10.0 mi Calm Calm - N/A   Clear
3:51 AM 14.0 °F - 3.2 °F 62% 30.18 in 10.0 mi Calm Calm - N/A   Clear
4:11 AM 14.0 °F - 3.2 °F 62% 30.18 in 10.0 mi Calm Calm - N/A   Clear
4:32 AM 10.8 °F - 3.4 °F 72% 30.18 in 10.0 mi Calm Calm - N/A   Clear
5:12 AM 13.5 °F - 3.9 °F 66% 30.19 in 10.0 mi Calm Calm - N/A   Clear
5:22 AM 11.5 °F - 3.7 °F 71% 30.20 in 10.0 mi Calm Calm - N/A   Clear
5:53 AM 8.6 °F - 3.2 °F 79% 30.21 in 10.0 mi Calm Calm - N/A   Clear
6:53 AM 8.6 °F - 1.4 °F 73% 30.22 in 10.0 mi Calm Calm - N/A   Clear
7:53 AM 8.6 °F - 3.2 °F 79% 30.23 in 10.0 mi Calm Calm - N/A   Partly Cloudy
8:53 AM 15.8 °F 10.2 °F 6.8 °F 68% 30.24 in 10.0 mi SSE 3.5 mph - N/A   Scattered Clouds
9:50 AM 19.4 °F 14.3 °F 6.8 °F 58% 30.26 in 10.0 mi South 3.5 mph - N/A   Mostly Cloudy
10:53 AM 24.8 °F 15.3 °F 6.8 °F 46% 30.28 in 10.0 mi West 9.2 mph - N/A   Scattered Clouds
11:53 AM 24.8 °F 15.3 °F 8.6 °F 50% 30.27 in 10.0 mi West 9.2 mph - N/A   Scattered Clouds
12:53 PM 26.6 °F 17.5 °F 10.4 °F 51% 30.24 in 10.0 mi West 9.2 mph - N/A   Mostly Cloudy
1:53 PM 26.6 °F 17.5 °F 10.4 °F 51% 30.24 in 10.0 mi West 9.2 mph - N/A   Mostly Cloudy
2:54 PM 26.6 °F 20.0 °F 8.6 °F 47% 30.25 in 10.0 mi WNW 5.8 mph - N/A   Overcast
3:50 PM 26.6 °F 17.5 °F 14.0 °F 59% 30.27 in 10.0 mi WNW 9.2 mph - N/A   Overcast
4:46 PM 26.6 °F 15.2 °F 10.4 °F 51% 30.30 in 10.0 mi NNW 13.8 mph 23.0 mph N/A   Mostly Cloudy
5:46 PM 23.0 °F 11.7 °F 10.4 °F 59% 30.33 in 10.0 mi NNW 11.5 mph 23.0 mph N/A   Mostly Cloudy
6:48 PM 21.2 °F 9.5 °F 8.6 °F 58% 30.37 in 10.0 mi NNW 11.5 mph 23.0 mph N/A   Clear
7:45 PM 21.2 °F 7.8 °F 6.8 °F 54% 30.39 in 10.0 mi NW 15.0 mph 24.2 mph N/A   Scattered Clouds
8:46 PM 19.4 °F 5.0 °F 6.8 °F 58% 30.41 in 10.0 mi NW 16.1 mph 27.6 mph N/A   Scattered Clouds
9:34 PM 19.4 °F 6.0 °F 5.0 °F 54% 30.43 in 10.0 mi NNW 13.8 mph 19.6 mph N/A   Clear
9:54 PM 19.0 °F 4.0 °F 4.6 °F 54% 30.43 in 10.0 mi NW 17.3 mph 25.3 mph N/A   Clear
10:14 PM 19.2 °F 5.3 °F 4.1 °F 52% 30.43 in 10.0 mi NW 15.0 mph 28.8 mph N/A   Clear
10:34 PM 18.3 °F 6.6 °F 4.3 °F 54% 30.44 in 10.0 mi NNW 10.4 mph 24.2 mph N/A   Clear
10:54 PM 18.5 °F 2.9 °F 2.1 °F 49% 30.45 in 10.0 mi NNW 18.4 mph 26.5 mph N/A   Clear
11:14 PM 17.6 °F 2.7 °F 1.8 °F 50% 30.45 in 10.0 mi NNW 16.1 mph 23.0 mph N/A   Clear
11:34 PM 17.6 °F 2.7 °F 1.6 °F 50% 30.44 in 10.0 mi NNW 16.1 mph 21.9 mph N/A   Clear
11:54 PM 16.9 °F 3.4 °F 1.9 °F 52% 30.45 in 10.0 mi NNW 12.7 mph 17.3 mph N/A   Clear